This demonstration page uses our WeatherBlox Daily Observations layout. Learn more.

Left ArrowRight Arrow

36.17497, -115.13722

Hourly Observations for August 22, 2019

Temp ( °F °C ) Dew Point ( °F °C ) Humidity (%) Winds ( mph kmh ) Pressure ( in mb ) Visibility ( mi km ) Precip ( " mm )
12:53 am 00:53 Clear 86 30 24 -4.4 10 10 N 5 7 29.67 1005 10 16 0.00 0.00
1:53 am 01:53 Clear 86 30 24 -4.4 10 10 N 3 6 29.66 1004 10 16 0.00 0.00
2:53 am 02:53 Clear 80 26.7 24 -4.4 13 13 NNW 6 9 29.67 1005 10 16 0.00 0.00
3:53 am 03:53 Clear 80 26.7 22 -5.6 11 11 NNW 6 9 29.67 1005 10 16 0.00 0.00
4:53 am 04:53 Clear 77 25 26 -3.3 15 15 WNW 5 7 29.68 1005 10 16 0.00 0.00
5:53 am 05:53 Clear 77 25 31 -0.6 18 18 WNW 5 7 29.69 1005 10 16 0.00 0.00
6:53 am 06:53 Sunny 77 25 32 0 19 19 NW 7 11 29.70 1006 10 16 0.00 0.00
7:53 am 07:53 Sunny 83 28.3 29 -1.7 14 14 NNW 5 7 29.71 1006 10 16 0.00 0.00
8:53 am 08:53 Sunny 85 29.4 26 -3.3 12 12 ENE 3 6 29.71 1006 10 16 0.00 0.00
9:53 am 09:53 Sunny 91 32.8 27 -2.8 10 10 E 6 9 29.71 1006 10 16 0.00 0.00
10:53 am 10:53 Sunny 97 36.1 27 -2.8 8 8 ESE 12 19 29.70 1006 10 16 0.00 0.00
11:16 am 11:16 Sunny 99 37.2 22 -5.6 6 6 S 15 24 29.54 1000 10 16 0.00 0.00
11:53 am 11:53 Sunny 99 37.2 21 -6.1 6 6 SSW 16 26 29.69 1006 10 16 0.00 0.00
12:25 pm 12:25 Hazy 100 37.8 18 -7.8 5 5 undefined N/A 29.53 1000 2 3 0.00 0.00
12:34 pm 12:34 Hazy 101 38.3 15 -9.4 4 4 undefined N/A 29.53 1000 2 3 0.00 0.00
12:44 pm 12:44 Hazy 102 38.9 15 -9.4 4 4 undefined N/A 29.53 1000 1 2 0.00 0.00
12:53 pm 12:53 Sunny 102 38.9 14 -10 4 4 SSW 15 24 29.69 1005 9 14 0.00 0.00
1:53 pm 13:53 Sunny 103 39.4 14 -10 4 4 S 12 19 29.66 1004 10 16 0.00 0.00
2:53 pm 14:53 Sunny 104 40 10 -12.2 3 3 SSW 18 30 29.63 1003 10 16 0.00 0.00
3:53 pm 15:53 Sunny 104 40 10 -12.2 3 3 SW 20 31 29.62 1003 10 16 0.00 0.00
4:53 pm 16:53 Sunny 104 40 12 -11.1 3 3 SSW 17 28 29.61 1003 10 16 0.00 0.00
5:53 pm 17:53 Sunny 102 38.9 16 -8.9 4 4 S 13 20 29.60 1003 10 16 0.00 0.00
6:53 pm 18:53 Sunny 100 37.8 22 -5.6 6 6 SSW 15 24 29.62 1003 10 16 0.00 0.00
7:53 pm 19:53 Clear 97 36.1 24 -4.4 7 7 S 12 19 29.62 1003 10 16 0.00 0.00
8:53 pm 20:53 Clear 95 35 23 -5 7 7 S 13 20 29.63 1003 10 16 0.00 0.00
9:53 pm 21:53 Clear 93 33.9 23 -5 8 8 SW 9 15 29.64 1004 10 16 0.00 0.00
10:53 pm 22:53 Clear 89 31.7 28 -2.2 11 11 WNW 7 11 29.65 1004 10 16 0.00 0.00
11:53 pm 23:53 Clear 87 30.6 27 -2.8 11 11 NNE 6 9 29.66 1004 10 16 0.00 0.00

Powered by AerisWeather